Regional Weather Roundup
Issued by NWS

Home | Current Version | Previous Version | Text Only | Print | Product List | Glossary Off
Versions: 1 2 3 4 5 6 7 8 9 10 11 12 13 14 15 16 17 18 19 20 21 22 23 24 25 26 27 28 29 30 31 32 33 34 35 36 37 38 39 40 41 42 43 44 45 46 47 48 49 50

000
ASUS43 KIND 161009
RWRIN

WEATHER ROUNDUP FOR INDIANA
NATIONAL WEATHER SERVICE INDIANAPOLIS IN
500 AM EST SAT DEC 16 2017

NOTE: "FAIR" INDICATES FEW OR NO CLOUDS BELOW 12,000 FEET WITH NO
SIGNIFICANT WEATHER AND/OR OBSTRUCTIONS TO VISIBILITY.

* - STATION DOES NOT REPORT WEATHER SUCH AS PRECIPITATION OR FOG.

+ - STATION NOT QUALITY CONTROLLED BY THE NATIONAL WEATHER SERVICE.
    USE DATA WITH CAUTION...ESPECIALLY DEWPOINT AND RELATIVE
    HUMIDITY OBSERVATIONS.

INZ001>003-010>013-019-020-161100-
NORTHWEST INDIANA

CITY           SKY/WX    TMP DP  RH WIND       PRES   REMARKS
GARY /AIRPORT/ CLOUDY    38  23  54 SW10      29.87F WCI  31
KNOX *+        CLOUDY    34  27  75 SW10G18   29.90F WCI  26
LA PORTE +     CLOUDY    34  24  68 SW15      29.88F WCI  24
MICHIGAN CITY+ CLOUDY    36  25  64 SW13      29.86F WCI  27
MONTICELLO +   CLOUDY    33  23  65 S14       29.94F WCI  23
RENSSELAER +   CLOUDY    36  19  51 S15       29.91F WCI  26
VALPARAISO     CLOUDY    37  25  61 SW14      29.88F WCI  28

$$

LMZ046-743>745-161100-
SOUTHERN LAKE MICHIGAN

STATION/POSITION TIME  TEMP    WIND        PRES    WAVE
                       AIR SEA DIR/SP/G            HT
                 (UTC) (F)     (DEG/KT/KT) (MB)    (FT)
BURNS HARBOR     0940   37     200/ 16/ 21 1011.5F
MICHIGAN CITY    0940   37     190/ 16/ 22   N/A

$$

INZ004-005-014>016-021>024-161100-
NORTH CENTRAL INDIANA

CITY           SKY/WX    TMP DP  RH WIND       PRES   REMARKS
GOSHEN         CLOUDY    33  23  66 SW14      29.90S WCI  23
LOGANSPORT +   CLOUDY    34  23  64 SW13G18   29.96S WCI  25
PERU/GRISSOM   CLOUDY    34  24  66 SW16      29.95S WCI  24
ROCHESTER +    CLOUDY    36  27  69 SW10G16   29.94R WCI  28
SOUTH BEND     CLOUDY    34  25  69 SW15      29.88F WCI  24
WARSAW +       CLOUDY    34  23  64 SW8       29.92R WCI  27

$$

INZ006>009-017-018-025>027-161100-
NORTHEAST INDIANA

CITY           SKY/WX    TMP DP  RH WIND       PRES   REMARKS
AUBURN +       CLOUDY    34  23  64 SW10      29.92S WCI  26
FORT WAYNE     CLOUDY    33  25  72 SW16      29.94F WCI  23
HUNTINGTON +   CLOUDY    33  23  65 SW10G18   29.95S WCI  25

$$

INZ028-029-035-036-043>045-051>053-161100-
WEST CENTRAL INDIANA

CITY           SKY/WX    TMP DP  RH WIND       PRES   REMARKS
CRAWFORDSVL +  CLEAR     29  24  79 S9        29.98F WCI  21
GREENCASTLE +  CLEAR     32  25  74 S5        30.02S WCI  27
LAFAYETTE      PTCLDY    33  24  69 S6        29.96F WCI  28
TERRE HAUTE    CLEAR     32  24  72 S9        30.03S WCI  24

$$

INZ030>032-037>040-046>048-054>057-064-065-161100-
CENTRAL INDIANA

CITY           SKY/WX    TMP DP  RH WIND       PRES   REMARKS
FRANKFORT +    CLEAR     32  26  76 SW10      29.99S WCI  24
GREENWOOD *+   CLOUDY    35  28  73 SW8       30.03R WCI  29
INDIANAPOLIS   PTCLDY    32  24  72 S12       30.01F WCI  23
-EAGLE CREEK   CLEAR     33  24  69 S9        30.00S WCI  25
KOKOMO +       CLOUDY    34  24  67 SW15      29.97F WCI  24
MARION +       CLOUDY    33  24  70 SW14      29.97F WCI  23
MT COMFORT *+  CLOUDY    32  27  80 S9        30.01S WCI  24
SHELBYVILLE    CLOUDY    31  23  72 S10       30.02F WCI  22
ZIONSVILLE +   CLEAR     31  24  74 S12       29.99F WCI  22

$$

INZ033-034-041-042-049-050-058-059-161100-
EAST CENTRAL INDIANA

CITY           SKY/WX    TMP DP  RH WIND       PRES   REMARKS
MUNCIE         CLOUDY    34  24  67 SW12      29.99F WCI  25
RICHMOND +     CLOUDY    32  27  80 SW13      30.02S WCI  22

$$

INZ060-061-067>069-081>083-085>088-161100-
SOUTHWEST INDIANA

CITY           SKY/WX    TMP DP  RH WIND       PRES   REMARKS
EVANSVILLE     CLEAR     30  26  85 SW6       30.12F WCI  24
HUNTINGBURG +  CLEAR     31  26  82 S12       30.10F WCI  22
WASHINGTON +   CLEAR     31  25  76 S12       30.06F WCI  22

$$

INZ062-063-066-070>080-084-089>092-161100-
SOUTH CENTRAL AND SOUTHEAST INDIANA

CITY           SKY/WX    TMP DP  RH WIND       PRES   REMARKS
BEDFORD +      CLEAR     32  25  74 S7        30.06F WCI  26
BLOOMINGTON    CLEAR     31  24  75 SW8       30.04F WCI  23
MADISON *+     CLOUDY    32  25  74 S7        30.08F WCI  26
NORTH VERNON + CLOUDY    30  23  74 S8        30.06F WCI  23
SEYMOUR +      CLOUDY    34  25  69 SW12      30.07F WCI  25

$$





USA.gov is the U.S. government's official web portal to all federal, state and local government web resources and services.